Location: Nashville
(36.1660°N, 86.7840°W)
Time: 18:26:12
(UTC-06:00)

Tiangong - Pass Details

Date: 27 November 2022
Orbit: 383 x 386 km, 41.5° (Epoch: 28 January)

Event Time Altitude Azimuth Distance (km) Brightness Sun altitude
Rises 18:20:02 0° 230° (SW) 2,254 2.8 -21.2°
Reaches altitude 10° 18:22:09 10° 223° (SW) 1,405 1.4 -21.6°
Enters shadow 18:24:09 31° 198° (SSW) 707 -0.6 -22.0°
